GW3336 Weather Reports


time (UTC)temp
C
wind
direction
speed
KPH
gust
KPH
rain 1hr
cm
rain 24hr
cm
rain mn
cm
humidity
%
barometer
mb
20260504140847 6 337 17.7 22.5 0.00 0.00 0.00 78 1000.5
20260504140343 6 341 19.3 20.9 0.00 0.00 0.00 77 1000.5
20260504130812 7 317 12.9 17.7 0.00 0.00 0.00 77 999.4
20260504130308 7 325 19.3 25.7 0.00 0.00 0.00 76 999.4
20260504120232 8 314 11.3 14.5 0.00 0.00 0.00 74 998.1
20260504110659 8 313 3.2 4.8 0.00 0.00 0.00 74 997.7
20260504110155 8 308 3.2 4.8 0.00 0.00 0.00 74 997.3
20260504100615 9 321 4.8 6.4 0.00 0.00 0.00 73 996.7
20260504100113 9 319 6.4 6.4 0.00 0.00 0.00 73 996.7
20260504081506 11 2 24.1 30.6 0.00 0.00 0.00 67 996.3
20260504081002 11 357 24.1 33.8 0.00 0.00 0.00 67 996.1
20260504080458 11 345 29.0 33.8 0.00 0.00 0.00 65 996.0
20260504050305 16 260 16.1 22.5 0.00 0.00 0.00 38 997.0
20260504045802 16 229 19.3 27.4 0.00 0.00 0.00 38 997.0
20260504045256 16 181 11.3 14.5 0.00 0.00 0.00 38 997.1
20260504044754 16 207 11.3 16.1 0.00 0.00 0.00 38 997.3
20260504044252 16 182 12.9 14.5 0.00 0.00 0.00 38 997.4
20260504043749 16 207 14.5 22.5 0.00 0.00 0.00 37 997.6
20260504043245 16 251 16.1 17.7 0.00 0.00 0.00 37 997.6
20260504042743 16 225 8.0 11.3 0.00 0.00 0.00 38 997.9
20260504042240 16 253 14.5 20.9 0.00 0.00 0.00 38 998.1
20260504041736 16 238 16.1 22.5 0.00 0.00 0.00 37 998.1
20260504041232 16 275 9.7 12.9 0.00 0.00 0.00 38 998.2
20260504040728 16 244 14.5 17.7 0.00 0.00 0.00 38 997.9
20260504040226 16 187 8.0 12.9 0.00 0.00 0.00 38 998.2
20260504035722 16 288 9.7 12.9 0.00 0.00 0.00 38 998.6
20260504035219 16 224 11.3 12.9 0.00 0.00 0.00 38 998.6
20260504034717 16 239 16.1 22.5 0.00 0.00 0.00 38 998.7
20260504034214 16 185 11.3 12.9 0.00 0.00 0.00 38 998.9
20260504033711 16 256 11.3 14.5 0.00 0.00 0.00 38 999.0
20260504033208 16 252 16.1 20.9 0.00 0.00 0.00 38 999.2
20260504032705 16 240 9.7 12.9 0.00 0.00 0.00 38 999.2
20260504032203 16 239 9.7 11.3 0.00 0.00 0.00 38 999.2
20260504031659 16 213 9.7 12.9 0.00 0.00 0.00 38 999.5
20260504031155 16 206 9.7 11.3 0.00 0.00 0.00 38 999.7
20260504030652 16 214 12.9 14.5 0.00 0.00 0.00 38 999.5
20260504030149 16 237 11.3 14.5 0.00 0.00 0.00 38 999.5
20260504025646 16 233 11.3 14.5 0.00 0.00 0.00 38 999.7
20260504025142 16 253 8.0 14.5 0.00 0.00 0.00 39 999.8
20260504024640 16 203 6.4 6.4 0.00 0.00 0.00 39 999.8
20260504024136 16 189 6.4 6.4 0.00 0.00 0.00 40 999.8
20260504023633 16 206 4.8 9.7 0.00 0.00 0.00 40 1000.1
20260504023130 16 264 3.2 4.8 0.00 0.00 0.00 39 1000.1
20260504022626 16 216 6.4 9.7 0.00 0.00 0.00 38 1000.2
20260504022122 16 189 6.4 6.4 0.00 0.00 0.00 38 1000.1
20260504021620 16 234 6.4 9.7 0.00 0.00 0.00 37 1000.2
20260504021116 16 186 4.8 6.4 0.00 0.00 0.00 37 1000.4
20260504020614 17 219 4.8 6.4 0.00 0.00 0.00 36 1000.7
20260504020109 17 246 9.7 12.9 0.00 0.00 0.00 35 1000.7
20260504015606 17 200 6.4 9.7 0.00 0.00 0.00 36 1000.8
20260504015102 17 189 3.2 3.2 0.00 0.00 0.00 35 1000.8
20260504014558 16 228 8.0 9.7 0.00 0.00 0.00 36 1001.0
20260504014055 17 237 4.8 6.4 0.00 0.00 0.00 36 1001.1
20260504013553 17 236 8.0 11.3 0.00 0.00 0.00 36 1001.3
20260504013050 17 207 3.2 4.8 0.00 0.00 0.00 36 1001.3
20260504012547 17 218 8.0 9.7 0.00 0.00 0.00 35 1001.5
20260504012045 17 241 8.0 9.7 0.00 0.00 0.00 35 1001.7
20260504011542 18 201 0.0 1.6 0.00 0.00 0.00 34 1001.7
20260504011038 18 327 9.7 14.5 0.00 0.00 0.00 32 1001.6
20260504010533 18 211 9.7 11.3 0.00 0.00 0.00 32 1001.8
20260504010030 18 271 6.4 9.7 0.00 0.00 0.00 32 1001.9
20260504005526 18 280 9.7 14.5 0.00 0.00 0.00 32 1002.1
20260504005024 19 213 3.2 11.3 0.00 0.00 0.00 32 1002.2
20260504004522 19 296 6.4 9.7 0.00 0.00 0.00 32 1002.6
20260504004019 19 252 6.4 6.4 0.00 0.00 0.00 33 1002.4
20260504003515 19 300 4.8 6.4 0.00 0.00 0.00 32 1002.3
20260504003012 19 284 9.7 12.9 0.00 0.00 0.00 32 1002.5
20260504002509 19 261 11.3 16.1 0.00 0.00 0.00 31 1002.6
20260504002006 20 251 8.0 12.9 0.00 0.00 0.00 32 1002.7
20260504001504 20 295 6.4 9.7 0.00 0.00 0.00 31 1002.7
20260504001000 20 229 14.5 16.1 0.00 0.00 0.00 31 1002.6
20260504000457 20 299 6.4 6.4 0.00 0.00 0.00 31 1002.8
20260503235954 20 324 8.0 11.3 0.00 0.00 0.00 32 1002.8
20260503235452 20 299 6.4 9.7 0.00 0.00 0.00 31 1002.9
20260503234949 20 303 9.7 12.9 0.00 0.00 0.00 31 1003.2
20260503234446 20 281 8.0 9.7 0.00 0.00 0.00 31 1003.0
20260503233944 20 306 9.7 12.9 0.00 0.00 0.00 32 1003.4
20260503233440 20 306 6.4 6.4 0.00 0.00 0.00 32 1003.3
20260503232937 20 342 3.2 4.8 0.00 0.00 0.00 31 1003.6
20260503232434 20 308 6.4 9.7 0.00 0.00 0.00 32 1003.6
20260503231932 20 303 6.4 11.3 0.00 0.00 0.00 33 1003.7
20260503231429 20 331 14.5 17.7 0.00 0.00 0.00 32 1003.8
20260503230925 20 302 6.4 6.4 0.00 0.00 0.00 32 1003.8
20260503230422 20 326 9.7 12.9 0.00 0.00 0.00 32 1003.8
20260503225920 20 318 6.4 16.1 0.00 0.00 0.00 33 1004.0
20260503225416 19 326 3.2 3.2 0.00 0.00 0.00 33 1004.0
20260503224912 19 327 9.7 11.3 0.00 0.00 0.00 36 1004.1
20260503224409 19 311 4.8 4.8 0.00 0.00 0.00 34 1004.1
20260503223907 20 291 6.4 9.7 0.00 0.00 0.00 33 1004.2
20260503223405 20 310 8.0 11.3 0.00 0.00 0.00 34 1004.4
20260503222859 20 306 1.6 3.2 0.00 0.00 0.00 33 1004.4
20260503222358 20 309 4.8 11.3 0.00 0.00 0.00 31 1004.5
20260503221856 19 323 3.2 3.2 0.00 0.00 0.00 32 1004.6
20260503221355 19 262 8.0 11.3 0.00 0.00 0.00 32 1004.6
20260503220850 20 271 6.4 9.7 0.00 0.00 0.00 32 1004.7
20260503220347 20 295 9.7 11.3 0.00 0.00 0.00 31 1004.6
20260503215844 20 294 8.0 11.3 0.00 0.00 0.00 31 1004.7
20260503215341 20 254 9.7 12.9 0.00 0.00 0.00 28 1004.7
20260503214839 20 247 16.1 20.9 0.00 0.00 0.00 30 1004.9
20260503214336 20 327 9.7 12.9 0.00 0.00 0.00 31 1004.9
20260503213833 20 300 4.8 6.4 0.00 0.00 0.00 32 1005.0
20260503213331 20 291 6.4 6.4 0.00 0.00 0.00 32 1004.9
20260503212828 20 308 9.7 14.5 0.00 0.00 0.00 30 1005.2
20260503212326 19 301 3.2 3.2 0.00 0.00 0.00 35 1005.2
20260503211823 19 316 4.8 4.8 0.00 0.00 0.00 32 1005.5
20260503211319 20 301 8.0 11.3 0.00 0.00 0.00 31 1005.4
20260503210819 20 297 3.2 4.8 0.00 0.00 0.00 34 1005.4
20260503210317 19 288 4.8 6.4 0.00 0.00 0.00 32 1005.5
20260503205812 20 303 12.9 16.1 0.00 0.00 0.00 32 1005.5
20260503205309 19 271 9.7 11.3 0.00 0.00 0.00 33 1005.8
20260503204805 19 287 8.0 11.3 0.00 0.00 0.00 32 1006.3
20260503204303 18 281 6.4 6.4 0.00 0.00 0.00 33 1006.2
20260503203800 18 333 3.2 4.8 0.00 0.00 0.00 32 1006.5
20260503203257 19 322 6.4 6.4 0.00 0.00 0.00 36 1006.4
20260503202754 18 305 3.2 4.8 0.00 0.00 0.00 38 1006.4
20260503202252 18 315 6.4 6.4 0.00 0.00 0.00 35 1006.6
20260503201750 18 322 6.4 9.7 0.00 0.00 0.00 35 1006.6
20260503201247 18 5 6.4 9.7 0.00 0.00 0.00 35 1006.8
20260503200744 18 343 1.6 3.2 0.00 0.00 0.00 35 1006.8
20260503200240 17 322 3.2 4.8 0.00 0.00 0.00 41 1006.8
20260503195737 17 306 6.4 9.7 0.00 0.00 0.00 37 1007.0
20260503195234 17 292 8.0 11.3 0.00 0.00 0.00 38 1007.1
20260503194732 17 343 8.0 9.7 0.00 0.00 0.00 40 1007.2
20260503194227 17 350 8.0 11.3 0.00 0.00 0.00 35 1007.1
20260503193723 17 297 3.2 3.2 0.00 0.00 0.00 36 1007.3
20260503193219 17 311 8.0 9.7 0.00 0.00 0.00 39 1007.4
20260503192715 17 324 9.7 12.9 0.00 0.00 0.00 40 1007.5
20260503192211 17 340 4.8 4.8 0.00 0.00 0.00 40 1007.6
20260503191708 16 312 6.4 9.7 0.00 0.00 0.00 41 1007.8
20260503191205 16 357 6.4 6.4 0.00 0.00 0.00 41 1007.9
20260503190701 16 329 6.4 6.4 0.00 0.00 0.00 39 1007.9
20260503190158 16 313 6.4 6.4 0.00 0.00 0.00 40 1007.9
20260503185655 16 339 11.3 12.9 0.00 0.00 0.00 39 1008.2
20260503185150 16 327 4.8 4.8 0.00 0.00 0.00 43 1008.1
20260503184645 16 352 8.0 11.3 0.00 0.00 0.00 44 1008.4
20260503184142 16 317 4.8 4.8 0.00 0.00 0.00 40 1008.0
20260503183638 16 323 6.4 6.4 0.00 0.00 0.00 40 1008.5
20260503183136 16 308 8.0 11.3 0.00 0.00 0.00 37 1008.7
20260503182634 16 318 8.0 11.3 0.00 0.00 0.00 39 1008.5
20260503182132 16 351 6.4 9.7 0.00 0.00 0.00 38 1008.7
20260503181629 16 331 8.0 11.3 0.00 0.00 0.00 41 1008.9
20260503181126 15 188 1.6 3.2 0.00 0.00 0.00 37 1009.1
20260503180622 15 347 14.5 16.1 0.00 0.00 0.00 40 1008.9
20260503180120 15 330 4.8 4.8 0.00 0.00 0.00 41 1009.2
20260503175617 15 11 3.2 6.4 0.00 0.00 0.00 37 1008.9
20260503175114 15 336 1.6 1.6 0.00 0.00 0.00 39 1009.3
20260503174611 15 324 9.7 11.3 0.00 0.00 0.00 40 1009.2
20260503174108 15 18 9.7 11.3 0.00 0.00 0.00 38 1009.3
20260503173603 15 11 6.4 9.7 0.00 0.00 0.00 43 1009.2
20260503173059 15 311 6.4 9.7 0.00 0.00 0.00 39 1009.3
20260503172551 14 337 6.4 9.7 0.00 0.00 0.00 40 1009.5
20260503172048 14 333 11.3 12.9 0.00 0.00 0.00 41 1009.5
20260503171544 14 328 6.4 9.7 0.00 0.00 0.00 43 1009.6
20260503171042 14 223 6.4 9.7 0.00 0.00 0.00 42 1009.7
20260503170538 13 347 11.3 12.9 0.00 0.00 0.00 42 1009.8
20260503150931 12 349 6.4 9.7 0.00 0.00 0.00 46 1009.8
20260503150427 12 359 8.0 9.7 0.00 0.00 0.00 45 1009.8